[[{"header":{"parameterUnit":"m.s-1","parameterCategory":1,"la1":30.2991,"la2":30.254,"lo1":-89.0895,"lo2":-89.0444,"dy":0.0017,"dx":0.0017,"nx":28,"ny":28,"refTime":"2023-08-24T03:00:00:Z","depth":0,"parameterNumber":2,"parameterNumberName":"U-component_of_WINDS"},"data":[0,0,0,0,0,0,0,0,0,0,0,0,0,0,0,0,0,0,0,0,0,0,0,0,0,0,0,0,0,0,0,0,0,0,0,0,0,0,0,0,0,0,0,0,0,0,0,0,0,0,0,0,0,0,0,0,0,0,0.6201,0.6201,0,0.6202,0.6202,0.6202,0.6208,0.6208,0.6208,0.6209,0.6209,0.6209,0.6209,0,0,0,0,0,0,0,0,0,0,0,0,0,0.6204,0.6204,0.6201,0.6201,0.6201,0.6202,0.6202,0.6202,0.6208,0.6208,0.6208,0.6209,0.6209,0.6209,0.6209,0,0,0,0,0,0,0,0,0,0,0,0,0,0.6204,0.6204,0.6201,0.6205,0.6205,0.6202,0.6202,0.6202,0.6208,0.6208,0.6208,0.6209,0.6209,0.6209,0.6209,0.6203,0,0,0.6208,0.6208,0,0,0,0,0,0,0,0,0.6204,0.6204,0.6204,0.6204,0.6205,0.6205,0.6203,0.6202,0.6208,0.6207,0.6209,0.6209,0.6208,0.6207,0.6207,0.6203,0.6203,0.6208,0.6208,0.6208,0.6208,0,0,0,0,0,0,0,0.6204,0.6204,0.6202,0.6204,0.6204,0.6206,0.6206,0.6203,0.6206,0.6207,0.6207,0.6207,0.6208,0.6207,0.6207,0.6203,0.6208,0.6208,0.6208,0.6208,0.6193,0.6193,0,0,0,0,0,0,0.6204,0.6204,0.6202,0.6202,0.6205,0.6205,0.6206,0.6205,0.6206,0.6206,0.6207,0.6208,0.6207,0.6207,0.6207,0.62,0.6208,0.6208,0.6208,0.6193,0.6193,0.6193,0,0,0,0,0,0,0.6204,0.6203,0.6202,0.6203,0.6203,0.6205,0.6204,0.6205,0.6204,0.6206,0.6207,0.6206,0.6208,0.6207,0.6204,0.62,0.6208,0.6207,0.6194,0.6193,0.6193,0.6186,0,0,0,0,0,0,0.6204,0.6203,0.6202,0.6203,0.6203,0.6198,0.6204,0.6205,0.6204,0.6205,0.6205,0.6206,0.6208,0.6204,0.6204,0.62,0.6207,0.6194,0.6194,0.6193,0.6186,0.6185,0.6184,0,0,0,0,0,0.6204,0.62,0.6201,0.6201,0.62,0.6198,0.6198,0.6201,0.6204,0.6201,0.6203,0.6206,0.6201,0.6204,0.6203,0.6199,0.6194,0.6194,0.6193,0.6187,0.6185,0.6184,0,0,0,0,0,0,0.6198,0.62,0.6202,0.6198,0.6198,0.6199,0.6197,0.6199,0.6198,0.6199,0.6202,0.6202,0.6198,0.6198,0.6202,0.6193,0.6198,0.6197,0.6193,0.6192,0.6191,0.619,0.6207,0,0,0,0,0,0.6196,0.6194,0.6196,0.6192,0.6192,0.6194,0.6194,0.6196,0.6196,0.6196,0.6196,0.6196,0.6194,0.6193,0.6192,0.6186,0.6186,0.6183,0.6182,0.6181,0.6181,0.6177,0.6175,0.6191,0.6191,0.6191,0,0,0.6193,0.6193,0.6192,0.6191,0.6191,0.6189,0.6194,0.6192,0.619,0.6195,0.6192,0.6192,0.6192,0.6187,0.6185,0.6187,0.6176,0.6181,0.618,0.618,0.6176,0.6175,0.6173,0.619,0.619,0.6191,0,0,0.6185,0.6185,0.6182,0.6182,0.6182,0.6183,0.6182,0.6183,0.6184,0.618,0.6183,0.6181,0.6178,0.6178,0.6177,0.6168,0.6171,0.6168,0.6162,0.6158,0.6157,0.6156,0.6152,0.615,0.6167,0.6167,0.6167,0,0.618,0.6177,0.618,0.6177,0.6176,0.618,0.6177,0.6176,0.6176,0.6175,0.6178,0.6173,0.6174,0.6168,0.6166,0.6166,0.6164,0.6167,0.6157,0.6156,0.6155,0.6151,0.6149,0.6166,0.6166,0.6167,0.6167,0,0.6171,0.6169,0.6166,0.6165,0.6164,0.6161,0.6163,0.6161,0.6163,0.6164,0.616,0.616,0.6158,0.6157,0.6159,0.6152,0.6153,0.6156,0.6161,0.6153,0.6149,0.6148,0.6166,0.6166,0.6166,0.6166,0,0,0.616,0.616,0.6159,0.6158,0.6158,0.6156,0.6153,0.6151,0.6149,0.6149,0.6145,0.6142,0.6145,0.6144,0.6146,0.6143,0.6135,0.6146,0.6146,0.6143,0.6126,0.6123,0.6121,0.6136,0.6136,0.6136,0.6125,0,0.6152,0.6146,0.6148,0.6142,0.6139,0.6143,0.614,0.6139,0.614,0.6137,0.6138,0.6135,0.6139,0.6139,0.6136,0.6136,0.6131,0.6137,0.6133,0.6133,0.6132,0.612,0.6117,0.6107,0.6124,0.6124,0.6124,0,0.6142,0.614,0.6134,0.6133,0.6132,0.6129,0.6127,0.6125,0.6124,0.6125,0.6124,0.6126,0.6122,0.6127,0.6121,0.6125,0.6123,0.6123,0.6123,0.6122,0.6127,0.6118,0.6104,0.6102,0.6122,0.6122,0.6122,0,0.6133,0.613,0.6125,0.6124,0.6124,0.6122,0.6121,0.6121,0.6119,0.6117,0.6116,0.6114,0.6113,0.6111,0.6112,0.6116,0.6106,0.6111,0.6106,0.6105,0.6103,0.6103,0.6088,0.6103,0.6103,0.6103,0.6103,0,0.6124,0.6119,0.6121,0.6118,0.6113,0.6116,0.611,0.6111,0.611,0.6107,0.611,0.6107,0.6109,0.6106,0.6107,0.6101,0.6101,0.6101,0.6101,0.61,0.61,0.6099,0.6099,0.6103,0.6103,0.6103,0.6103,0,0.6113,0.6115,0.611,0.6109,0.6109,0.6105,0.6105,0.6102,0.6103,0.6098,0.6098,0.6098,0.6095,0.6096,0.6092,0.6093,0.6086,0.6087,0.6086,0.6086,0.6081,0.6081,0.6064,0.6061,0.6078,0.6078,0.6078,0,0.6107,0.6104,0.6103,0.6101,0.61,0.6097,0.6095,0.6097,0.6095,0.6093,0.609,0.6087,0.6085,0.6079,0.6079,0.6076,0.6077,0.6071,0.6076,0.6075,0.6076,0.6076,0.6075,0.607,0.6069,0.6069,0.6069,0,0.6095,0.6096,0.6093,0.6091,0.6088,0.6086,0.6085,0.6083,0.6084,0.6082,0.6078,0.6076,0.6072,0.6068,0.6065,0.6065,0.6067,0.6067,0.6066,0.6065,0.6064,0.6063,0.6082,0.6068,0.6068,0.6068,0.6068,0.6068,0.6086,0.6083,0.6082,0.6079,0.6077,0.6075,0.6072,0.6072,0.6069,0.6066,0.6067,0.6062,0.6061,0.6057,0.6056,0.6052,0.6054,0.6052,0.6052,0.6051,0.605,0.6065,0.6052,0.6052,0.6052,0.6052,0.6052,0,0.6074,0.6073,0.607,0.6068,0.6065,0.6067,0.6065,0.6062,0.6058,0.6057,0.6054,0.6049,0.6045,0.6045,0.6041,0.6038,0.6039,0.6037,0.6037,0.6037,0.6049,0.605,0.6036,0.6036,0.6036,0.6036,0.6036,0.6036,0.6068,0.6062,0.6062,0.6056,0.6055,0.6051,0.6049,0.6047,0.6045,0.604,0.6037,0.6036,0.6035,0.6031,0.6027,0.6027,0.6025,0.6023,0.6023,0.6034,0.6036,0.6037,0.6039,0.6023,0.6023,0.6011,0.6011,0.6011]},{"header":{"parameterUnit":"m.s-1","parameterCategory":1,"la1":30.2991,"la2":30.254,"lo1":-89.0895,"lo2":-89.0444,"dy":0.0017,"dx":0.0017,"nx":28,"ny":28,"refTime":"2023-08-24T03:00:00:Z","depth":0,"parameterNumber":3,"parameterNumberName":"V-component_of_WINDS"},"data":[0,0,0,0,0,0,0,0,0,0,0,0,0,0,0,0,0,0,0,0,0,0,0,0,0,0,0,0,0,0,0,0,0,0,0,0,0,0,0,0,0,0,0,0,0,0,0,0,0,0,0,0,0,0,0,0,0,0,0.5994,0.5993,0,0.5878,0.5877,0.5875,0.5823,0.5823,0.5824,0.5824,0.57,0.5697,0.5693,0,0,0,0,0,0,0,0,0,0,0,0,0,0.6164,0.6162,0.5994,0.5992,0.5991,0.5878,0.5877,0.5875,0.5823,0.5823,0.5824,0.5824,0.5701,0.5697,0.5693,0,0,0,0,0,0,0,0,0,0,0,0,0,0.6074,0.6161,0.5994,0.5952,0.5947,0.5879,0.5877,0.5875,0.5823,0.5823,0.5824,0.5824,0.5702,0.5697,0.5692,0.5656,0,0,0.5677,0.5674,0,0,0,0,0,0,0,0,0.6079,0.6067,0.5959,0.5954,0.5949,0.5866,0.5891,0.5801,0.5823,0.587,0.5824,0.5824,0.5755,0.5745,0.5723,0.565,0.5645,0.5676,0.5673,0.5671,0.5669,0,0,0,0,0,0,0,0.6085,0.6072,0.5948,0.5958,0.5951,0.5937,0.5924,0.5874,0.5812,0.5866,0.5862,0.5849,0.5752,0.5728,0.5719,0.5643,0.5676,0.5672,0.5669,0.5667,0.5535,0.5534,0,0,0,0,0,0,0.6099,0.6078,0.5952,0.5944,0.6016,0.5933,0.5919,0.5892,0.5813,0.5801,0.5849,0.5847,0.5737,0.5726,0.5715,0.5667,0.5671,0.5666,0.5663,0.5535,0.5535,0.5534,0,0,0,0,0,0,0.6103,0.6088,0.5956,0.601,0.5992,0.593,0.59,0.589,0.5866,0.58,0.5788,0.5837,0.5736,0.5722,0.5671,0.5662,0.5664,0.5659,0.5536,0.5535,0.5535,0.5571,0,0,0,0,0,0,0.6108,0.609,0.6077,0.601,0.5989,0.5916,0.5899,0.5887,0.5858,0.5854,0.5785,0.5774,0.5735,0.5679,0.5666,0.5655,0.5655,0.5536,0.5535,0.5535,0.5571,0.5572,0.5573,0,0,0,0,0,0.6115,0.6091,0.6077,0.6062,0.5972,0.5916,0.5904,0.5862,0.5857,0.5842,0.58,0.5776,0.5666,0.5675,0.566,0.5646,0.5537,0.5536,0.5535,0.557,0.5572,0.5573,0,0,0,0,0,0,0.6156,0.6081,0.6065,0.6019,0.5975,0.5907,0.5888,0.5865,0.5819,0.5817,0.5765,0.575,0.5704,0.567,0.5682,0.5607,0.5599,0.5595,0.5631,0.5632,0.5633,0.5642,0.5651,0,0,0,0,0,0.6161,0.6123,0.6059,0.6025,0.6004,0.595,0.5924,0.5895,0.5846,0.5826,0.578,0.5732,0.5687,0.5657,0.5612,0.5566,0.5549,0.5549,0.5551,0.5552,0.5549,0.5521,0.552,0.5531,0.5531,0.5531,0,0,0.6168,0.6123,0.6102,0.6032,0.5994,0.5955,0.5934,0.5893,0.5863,0.5819,0.5769,0.5734,0.5677,0.5628,0.5605,0.5599,0.5542,0.5551,0.5552,0.5548,0.552,0.5519,0.5519,0.5531,0.5531,0.5531,0,0,0.6163,0.6125,0.6092,0.6055,0.5999,0.5963,0.5956,0.5892,0.5867,0.5816,0.5783,0.5745,0.5668,0.5628,0.5598,0.5578,0.5553,0.5564,0.5571,0.5545,0.5544,0.5543,0.5535,0.5533,0.5561,0.5562,0.5562,0,0.6179,0.612,0.6078,0.604,0.6009,0.597,0.5936,0.5901,0.5832,0.5811,0.5806,0.5708,0.5666,0.5608,0.5604,0.5581,0.5569,0.5571,0.5548,0.5546,0.5544,0.5536,0.5533,0.5563,0.5563,0.5563,0.5563,0,0.6143,0.6102,0.6083,0.6019,0.5986,0.595,0.5901,0.5872,0.5847,0.5811,0.576,0.5709,0.5652,0.5636,0.561,0.5574,0.5572,0.5558,0.5548,0.5546,0.5537,0.5534,0.5566,0.5565,0.5565,0.5564,0,0,0.6159,0.6074,0.6067,0.6037,0.5972,0.5939,0.5901,0.5847,0.5824,0.5777,0.5743,0.5678,0.5665,0.5631,0.56,0.5577,0.5564,0.5566,0.5563,0.5567,0.552,0.5531,0.5528,0.5548,0.5547,0.5546,0.5525,0,0.6144,0.6075,0.6036,0.5983,0.5944,0.5907,0.5873,0.5828,0.5794,0.5755,0.5717,0.5672,0.5658,0.5637,0.5613,0.5571,0.5554,0.5572,0.5514,0.5512,0.5529,0.5523,0.5534,0.5516,0.5521,0.552,0.552,0,0.6117,0.6073,0.6017,0.5956,0.5939,0.5909,0.5857,0.5821,0.5769,0.5745,0.5708,0.5677,0.5634,0.5629,0.5567,0.558,0.5554,0.553,0.5528,0.552,0.5515,0.5515,0.5509,0.5506,0.5514,0.5515,0.5515,0,0.6134,0.6061,0.6018,0.5994,0.5922,0.5902,0.5871,0.582,0.579,0.5743,0.5723,0.5672,0.5644,0.5604,0.556,0.556,0.5502,0.5493,0.548,0.5481,0.5469,0.547,0.5459,0.5454,0.5454,0.5454,0.5454,0,0.6121,0.6088,0.6024,0.5998,0.5959,0.5913,0.5876,0.5841,0.5796,0.5761,0.5724,0.5692,0.5636,0.5596,0.5561,0.5515,0.5502,0.5481,0.5472,0.5484,0.5486,0.5465,0.5465,0.5453,0.5453,0.5453,0.5453,0,0.6133,0.609,0.604,0.5977,0.596,0.5934,0.5879,0.5851,0.5815,0.5771,0.5758,0.5701,0.5652,0.5605,0.5538,0.5515,0.5469,0.5457,0.5487,0.5481,0.5471,0.5472,0.5444,0.5438,0.5439,0.5439,0.5439,0,0.6127,0.6101,0.6036,0.601,0.598,0.594,0.591,0.5864,0.5833,0.5773,0.5752,0.5701,0.5657,0.558,0.5532,0.5481,0.5467,0.5461,0.5459,0.5472,0.5466,0.5468,0.5465,0.5462,0.5463,0.5463,0.5463,0,0.6121,0.6101,0.606,0.6012,0.5977,0.5936,0.5893,0.5874,0.582,0.5787,0.5738,0.5704,0.5638,0.5587,0.553,0.5496,0.547,0.5464,0.5458,0.547,0.5488,0.5477,0.5489,0.5465,0.5464,0.5464,0.5464,0.5464,0.6123,0.6098,0.6049,0.6004,0.5967,0.5929,0.5899,0.586,0.5819,0.5762,0.5737,0.5687,0.5635,0.5557,0.5523,0.5482,0.5476,0.5467,0.5465,0.5464,0.5466,0.5495,0.5472,0.5472,0.5472,0.5472,0.5472,0,0.6115,0.6081,0.6041,0.5983,0.5948,0.5928,0.588,0.5851,0.5808,0.5763,0.5722,0.5664,0.5615,0.5563,0.5511,0.5488,0.5474,0.5475,0.5476,0.5468,0.5475,0.5485,0.5487,0.5487,0.5487,0.5487,0.5487,0.5487,0.6106,0.6063,0.6037,0.5974,0.594,0.5892,0.5866,0.5829,0.5793,0.5731,0.5691,0.5658,0.561,0.5554,0.5507,0.5493,0.5475,0.5479,0.5462,0.5469,0.5468,0.5467,0.5476,0.5476,0.5476,0.5458,0.5458,0.5458]}]]